sat.trackr.live / text

‹ back to catalog

STARLINK-11520 [DTC]

NORAD 62834 · 2025-019F

PAYLOAD ACTIVE UNKNOWN

§ Identity

Operator
Country
US
Launch date
2025-01-27
Launch site
AFETR
Launch vehicle
Mass (kg)
RCS (m²)

Purposes: comms

External: N2YO · Heavens-Above · Gunter

§ Orbital elements

Epoch: 2026-09-21T03:32:14.496000Z

Period
91.67 min
Inclination
43.0004°
Eccentricity
0.0001625
Mean motion
15.70877906 rev/d
Perigee alt
355.3 km
Apogee alt
357.5 km
Semi-major
6,734.5 km
B*
1.0683e-3
RAAN
207.6052°
Arg perigee
251.7596°
Mean anomaly
108.3095°
Rev number
9,463

§ Raw data

STARLINK-11520 [DTC]1 62834U 25019F   26264.14739000  .00139166  00000+0  10683-2 0  99992 62834  43.0004 207.6052 0001625 251.7596 108.3095 15.70877906 94635

JSON: /api/v1/satellites/62834 · /tle

For live sub-satellite position, see the globe view (requires WebGL).

§ Visibility from observer

Set your observer location to see the next 7 days of passes ≥ 10°. The values pass through the URL so the page stays shareable.

No JS? Fill the form by hand. The geolocation button needs JavaScript.